Location: Kam�li
(14.6864°N, 3.1482°W)
Time: 23:41:29
(UTC+00:00)

Cosmos 2315 Rocket - Pass Details

Date: 29 October 2020
Orbit: 967 x 1001 km, 82.9° (Epoch: 03 December)

Event Time Altitude Azimuth Distance (km) Brightness Sun altitude
Rises 18:52:19 0° 179° (S) 3,667 7.1 -16.7°
Reaches altitude 10° 18:54:51 10° 177° (S) 2,716 6.4 -17.3°
Maximum altitude 19:01:02 74° 93° (E) 1,007 3.9 -18.8°
Drops below altitude 10° 19:07:12 10° 9° (N) 2,703 6.1 -20.3°
Sets 19:09:42 0° 7° (N) 3,649 6.8 -20.9°
